This demonstration page uses our WeatherBlox Daily Observations layout. Learn more.

Left ArrowRight Arrow

39.01783, -85.05884

Hourly Observations for August 12, 2015

Temp ( °F °C ) Dew Point ( °F °C ) Humidity (%) Winds ( mph kmh ) Pressure ( in mb ) Visibility ( mi km ) Precip ( " mm )
12:52 am 00:52 Clear 69 20.6 62 16.7 78 78 NNW 8 13 30.03 1017 10 16.0934 N/A
1:52 am 01:52 Clear 67 19.4 61 16.1 81 81 NNW 8 13 30.04 1017 10 16.0934 N/A
2:52 am 02:52 Clear 66 18.9 60 15.6 81 81 NNW 8 13 30.03 1017 10 16.0934 N/A
3:52 am 03:52 Clear 64 17.8 59 15 84 84 NW 5 7 30.04 1017 10 16.0934 N/A
4:52 am 04:52 Clear 63 17.2 59 15 87 87 NNW 6 9 30.05 1018 10 16.0934 N/A
5:52 am 05:52 Clear 63 17.2 58 14.4 84 84 NW 7 11 30.05 1018 10 16.0934 N/A
6:52 am 06:52 Mostly Sunny 62 16.7 58 14.4 86 86 NNW 7 11 30.07 1018 10 16.0934 N/A
7:52 am 07:52 Mostly Sunny 63 17.2 59 15 87 87 NNW 6 9 30.08 1019 10 16.0934 N/A
8:52 am 08:52 Mostly Sunny 66 18.9 59 15 78 78 N 10 17 30.1 1019 10 16.0934 N/A
9:52 am 09:52 Mostly Sunny 69 20.6 60 15.6 73 73 NNW 9 15 30.1 1019 10 16.0934 N/A
10:52 am 10:52 Mostly Sunny 73 22.8 60 15.6 64 64 N 8 13 30.11 1020 10 16.0934 N/A
11:52 am 11:52 Mostly Sunny 75 23.9 58 14.4 55 55 NNW 10 17 30.11 1020 10 16.0934 N/A
12:52 pm 12:52 Partly Cloudy 76 24.4 58 14.4 54 54 N 12 19 30.1 1019 10 16.0934 N/A
1:52 pm 13:52 Mostly Sunny 78 25.6 58 14.4 50 50 N 12 19 30.09 1019 10 16.0934 N/A
2:52 pm 14:52 Mostly Sunny 79 26.1 57 13.9 47 47 NNW 13 20 30.08 1019 10 16.0934 N/A
3:52 pm 15:52 Mostly Sunny 79 26.1 57 13.9 47 47 NW 14 22 30.08 1019 10 16.0934 N/A
4:52 pm 16:52 Partly Cloudy 78 25.6 56 13.3 47 47 N 14 22 30.08 1019 10 16.0934 N/A
5:52 pm 17:52 Partly Cloudy 78 25.6 56 13.3 47 47 NNW 13 20 30.07 1018 10 16.0934 N/A
6:52 pm 18:52 Mostly Sunny 77 25 55 12.8 47 47 NNW 9 15 30.08 1019 10 16.0934 N/A
7:52 pm 19:52 Mostly Sunny 75 23.9 57 13.9 54 54 NNW 8 13 30.08 1019 10 16.0934 N/A
8:52 pm 20:52 Mostly Clear 72 22.2 57 13.9 59 59 NNW 6 9 30.08 1019 10 16.0934 N/A
9:52 pm 21:52 Mostly Clear 70 21.1 57 13.9 64 64 N 5 7 30.08 1019 10 16.0934 N/A
10:52 pm 22:52 Clear 69 20.6 58 14.4 68 68 N 3 6 30.09 1019 10 16.0934 N/A
11:52 pm 23:52 Clear 64 17.8 58 14.4 81 81 N N/A 30.08 1019 10 16.0934 N/A

Powered by AerisWeather